• In Hungary
  • List of Countries
  • For 7 days
  • Water Temperature
  • Satellite Maps
  • Weather Map
  • News
  • Weather Widgets
  • user-avatar
    Login

    Hourly Weather Przysypka

    Today, 17 February, Saturday

    Time Temperature Precipitation Wind Pressure Humidity
    00:00 -2°C° 0 mm 4 mps 756 mmHg 90%
    01:00 -2°C° 0 mm 4 mps 756 mmHg 90%
    02:00 -2°C° 0 mm 4 mps 756 mmHg 90%
    03:00 -2°C° 0 mm 5 mps 756 mmHg 90%
    04:00 -2°C° 0 mm 5 mps 756 mmHg 90%
    05:00 -2°C° 0 mm 5 mps 756 mmHg 90%
    06:00 -2°C° 0 mm 5 mps 756 mmHg 90%
    07:00 -2°C° 0 mm 4 mps 756 mmHg 90%
    08:00 -2°C° 0 mm 4 mps 755 mmHg 88%
    09:00 -1°C° 0 mm 4 mps 755 mmHg 87%
    10:00 -1°C° 0 mm 4 mps 755 mmHg 85%
    11:00 -1°C° 0 mm 4 mps 755 mmHg 84%
    12:00 0°C° 0 mm 4 mps 755 mmHg 82%
    13:00 +1°C° 0 mm 4 mps 755 mmHg 81%
    14:00 +1°C° 0 mm 3 mps 755 mmHg 83%
    15:00 +1°C° 0 mm 3 mps 755 mmHg 85%
    16:00 +2°C° 0 mm 2 mps 754 mmHg 87%
    17:00 +1°C° 0 mm 2 mps 754 mmHg 89%
    18:00 +1°C° 0 mm 2 mps 754 mmHg 91%
    19:00 -1°C° 0 mm 2 mps 754 mmHg 93%
    20:00 -1°C° 0 mm 2 mps 755 mmHg 92%
    21:00 -1°C° 0 mm 2 mps 755 mmHg 92%
    22:00 -2°C° 0 mm 2 mps 755 mmHg 91%
    23:00 -2°C° 0 mm 2 mps 755 mmHg 91%

    Tomorrow, 18 February, Sunday

    Time Temperature Precipitation Wind Pressure Humidity
    00:00 -2°C° 0 mm 2 mps 755 mmHg 91%
    01:00 -2°C° 0 mm 2 mps 755 mmHg 91%
    02:00 -2°C° 0 mm 2 mps 756 mmHg 92%
    03:00 -3°C° 0 mm 2 mps 756 mmHg 92%
    04:00 -3°C° 0 mm 2 mps 756 mmHg 93%
    05:00 -3°C° 0 mm 2 mps 757 mmHg 93%
    06:00 -3°C° 0 mm 2 mps 757 mmHg 92%
    07:00 -3°C° 0 mm 2 mps 757 mmHg 92%
    08:00 -3°C° 0 mm 2 mps 758 mmHg 86%
    09:00 -2°C° 0 mm 2 mps 758 mmHg 81%
    10:00 -1°C° 0 mm 2 mps 758 mmHg 75%
    11:00 -1°C° 0 mm 2 mps 759 mmHg 71%
    12:00 +1°C° 0 mm 2 mps 759 mmHg 68%
    13:00 +1°C° 0 mm 2 mps 759 mmHg 64%
    14:00 +1°C° 0 mm 2 mps 759 mmHg 65%
    15:00 +1°C° 0 mm 2 mps 759 mmHg 66%
    16:00 +2°C° 0 mm 1 mps 759 mmHg 68%
    17:00 +1°C° 0 mm 1 mps 759 mmHg 70%
    18:00 +1°C° 0 mm 1 mps 759 mmHg 72%
    19:00 -1°C° 0 mm 0 mps 759 mmHg 74%
    20:00 -1°C° 0 mm 0 mps 759 mmHg 74%
    21:00 0°C° 0 mm 1 mps 759 mmHg 75%
    22:00 0°C° 0 mm 1 mps 759 mmHg 75%
    23:00 0°C° 0 mm 1 mps 759 mmHg 76%

    Day after tomorrow, 19 February, Monday

    Time Temperature Precipitation Wind Pressure Humidity
    00:00 -1°C° 0 mm 1 mps 759 mmHg 77%
    01:00 -3°C° 0 mm 2 mps 759 mmHg 77%
    02:00 -3°C° 0 mm 2 mps 758 mmHg 78%
    03:00 -3°C° 0 mm 2 mps 758 mmHg 78%
    04:00 -3°C° 0 mm 2 mps 758 mmHg 78%
    05:00 -1°C° 0 mm 1 mps 758 mmHg 78%
    06:00 -1°C° 0 mm 1 mps 758 mmHg 78%
    07:00 -1°C° 0 mm 1 mps 757 mmHg 78%
    08:00 -2°C° 0 mm 2 mps 757 mmHg 74%
    09:00 -1°C° 0 mm 2 mps 757 mmHg 69%
    10:00 -1°C° 0 mm 2 mps 757 mmHg 64%
    11:00 +1°C° 0 mm 2 mps 757 mmHg 61%
    12:00 +2°C° 0 mm 2 mps 757 mmHg 58%
    13:00 +2°C° 0 mm 2 mps 756 mmHg 55%
    14:00 +2°C° 0 mm 2 mps 756 mmHg 57%
    15:00 +3°C° 0 mm 1 mps 756 mmHg 60%
    16:00 +2°C° 0 mm 1 mps 755 mmHg 62%
    17:00 +2°C° 0 mm 1 mps 755 mmHg 65%
    18:00 -1°C° 0 mm 2 mps 755 mmHg 68%
    19:00 -2°C° 0 mm 2 mps 755 mmHg 70%
    20:00 -2°C° 0 mm 2 mps 755 mmHg 71%
    21:00 -2°C° 0 mm 2 mps 755 mmHg 72%
    22:00 -2°C° 0 mm 2 mps 755 mmHg 73%
    23:00 -2°C° 0 mm 2 mps 755 mmHg 74%

    20 February, Tuesday

    Time Temperature Precipitation Wind Pressure Humidity
    00:00 -2°C° 0 mm 2 mps 755 mmHg 74%
    01:00 -2°C° 0 mm 2 mps 754 mmHg 75%
    02:00 -3°C° 0 mm 2 mps 754 mmHg 75%
    03:00 -3°C° 0 mm 2 mps 754 mmHg 76%
    04:00 -3°C° 0 mm 2 mps 754 mmHg 76%
    05:00 -4°C° 0 mm 3 mps 754 mmHg 76%
    06:00 -4°C° 0 mm 3 mps 754 mmHg 76%
    07:00 -4°C° 0 mm 3 mps 753 mmHg 76%
    08:00 -2°C° 0 mm 3 mps 753 mmHg 71%
    09:00 -3°C° 0 mm 4 mps 753 mmHg 66%
    10:00 -2°C° 0 mm 4 mps 753 mmHg 62%
    11:00 -1°C° 0 mm 4 mps 753 mmHg 59%
    12:00 0°C° 0 mm 4 mps 753 mmHg 57%
    13:00 0°C° 0 mm 4 mps 753 mmHg 54%
    14:00 0°C° 0 mm 4 mps 753 mmHg 57%
    15:00 -1°C° 0 mm 4 mps 753 mmHg 59%
    16:00 -1°C° 0 mm 4 mps 752 mmHg 62%
    17:00 -2°C° 0 mm 4 mps 753 mmHg 66%
    18:00 -3°C° 0 mm 4 mps 753 mmHg 71%
    19:00 -3°C° 0 mm 4 mps 753 mmHg 75%
    20:00 -4°C° 0 mm 3 mps 753 mmHg 76%
    21:00 -4°C° 0 mm 3 mps 753 mmHg 77%
    22:00 -4°C° 0 mm 3 mps 753 mmHg 78%
    23:00 -4°C° 0 mm 3 mps 753 mmHg 79%

    21 February, Wednesday

    Time Temperature Precipitation Wind Pressure Humidity
    00:00 -4°C° 0 mm 3 mps 753 mmHg 79%
    01:00 -4°C° 0 mm 3 mps 753 mmHg 80%
    02:00 -4°C° 0 mm 3 mps 753 mmHg 80%
    03:00 -4°C° 0 mm 3 mps 753 mmHg 81%
    04:00 -4°C° 0 mm 3 mps 753 mmHg 81%
    05:00 -5°C° 0 mm 3 mps 753 mmHg 82%
    06:00 -5°C° 0 mm 3 mps 753 mmHg 83%
    07:00 -5°C° 0 mm 3 mps 753 mmHg 84%
    08:00 -4°C° 0 mm 4 mps 753 mmHg 79%
    09:00 -3°C° 0 mm 4 mps 753 mmHg 75%
    10:00 -3°C° 0 mm 4 mps 754 mmHg 70%
    11:00 -2°C° 0 mm 4 mps 753 mmHg 67%
    12:00 -2°C° 0 mm 4 mps 753 mmHg 65%
    13:00 -1°C° 0 mm 4 mps 753 mmHg 62%
    14:00 -1°C° 0 mm 4 mps 753 mmHg 63%
    15:00 -2°C° 0 mm 4 mps 753 mmHg 65%
    16:00 -2°C° 0 mm 4 mps 753 mmHg 66%
    17:00 -2°C° 0 mm 4 mps 754 mmHg 69%
    18:00 -3°C° 0 mm 4 mps 754 mmHg 72%
    19:00 -4°C° 0 mm 3 mps 754 mmHg 75%
    20:00 -4°C° 0 mm 3 mps 754 mmHg 75%
    21:00 -4°C° 0 mm 3 mps 755 mmHg 75%
    22:00 -4°C° 0 mm 3 mps 755 mmHg 76%
    23:00 -4°C° 0 mm 3 mps 755 mmHg 75%

    22 February, Thursday

    Time Temperature Precipitation Wind Pressure Humidity
    00:00 -5°C° 0 mm 3 mps 755 mmHg 75%
    01:00 -5°C° 0 mm 3 mps 755 mmHg 74%
    02:00 -5°C° 0 mm 4 mps 755 mmHg 73%
    03:00 -5°C° 0 mm 4 mps 755 mmHg 71%
    04:00 -7°C° 0 mm 4 mps 755 mmHg 70%
    05:00 -7°C° 0 mm 4 mps 755 mmHg 69%
    06:00 -7°C° 0 mm 4 mps 755 mmHg 68%
    07:00 -8°C° 0 mm 4 mps 755 mmHg 67%
    08:00 -8°C° 0 mm 4 mps 755 mmHg 64%
    09:00 -7°C° 0 mm 4 mps 755 mmHg 62%
    10:00 -7°C° 0 mm 4 mps 755 mmHg 60%
    11:00 -7°C° 0 mm 4 mps 754 mmHg 58%
    12:00 -7°C° 0 mm 4 mps 754 mmHg 56%
    13:00 -5°C° 0 mm 4 mps 754 mmHg 54%
    14:00 -7°C° 0 mm 4 mps 754 mmHg 55%
    15:00 -7°C° 0 mm 4 mps 754 mmHg 55%
    16:00 -7°C° 0 mm 4 mps 753 mmHg 55%
    17:00 -7°C° 0 mm 4 mps 753 mmHg 56%
    18:00 -7°C° 0 mm 4 mps 754 mmHg 58%
    19:00 -8°C° 0 mm 4 mps 754 mmHg 59%
    20:00 -8°C° 0 mm 4 mps 754 mmHg 59%
    21:00 -7°C° 0 mm 3 mps 754 mmHg 59%
    22:00 -7°C° 0 mm 3 mps 754 mmHg 60%
    23:00 -7°C° 0 mm 3 mps 754 mmHg 61%
    Show more